{"data":{"norad_id":62670,"epoch":"2026-09-19T11:07:55.896096Z","epoch_age_seconds":104171,"freshness":"FRESH","line1":"1 62670U 25009BP  26262.46384139  .00007742  00000+0  26056-3 0  9994","line2":"2 62670  97.3864 343.1345 0004118  20.9611 339.1798 15.31053052150951","mean_motion":15.31053052,"eccentricity":0.0004118,"inclination_deg":97.3864,"raan_deg":343.1345,"arg_perigee_deg":20.9611,"mean_anomaly_deg":339.1798,"bstar":0.00026056,"rev_number":15095,"period_min":94.052913327787,"perigee_km":469.84803060835,"apogee_km":475.49035458857,"semimajor_km":6850.8061925985,"source":"CELESTRAK","updated_at":"2026-09-20T09:00:34.723027Z"}}